When you browse on this site, cookies collect data to enhance your experience and personalize the content and advertising you see.
Visit our Privacy Policy to learn more. By continuing to use the site, you agree to this use of cookies and data.
  • In Österreich
  • Länderverzeichnis
  • Für 7 Tage
  • Wassertemperatur
  • Wetterkarte
  • News
  • Widgets
  • user-avatar
    Anmelden

    Stündliche Wetter Suárez

    Heute, 22 September, Sonntag

    Zeit Temperatur Niederschläge Wind Luftdruck Luftfeuchtigkeit
    00:00 +19°C° 0.1 mm 0 m/S 666 mmHg 95%
    01:00 +18°C° 0.1 mm 0 m/S 666 mmHg 95%
    02:00 +18°C° 0.1 mm 0 m/S 666 mmHg 95%
    03:00 +18°C° 0.1 mm 0 m/S 666 mmHg 95%
    04:00 +18°C° 0.1 mm 0 m/S 665 mmHg 95%
    05:00 +18°C° 0 mm 0 m/S 666 mmHg 93%
    06:00 +19°C° 0 mm 0 m/S 666 mmHg 92%
    07:00 +19°C° 0 mm 0 m/S 667 mmHg 91%
    08:00 +21°C° 0.1 mm 0 m/S 667 mmHg 84%
    09:00 +23°C° 0.1 mm 0 m/S 668 mmHg 77%
    10:00 +27°C° 0.1 mm 1 m/S 669 mmHg 69%
    11:00 +28°C° 0.5 mm 1 m/S 668 mmHg 70%
    12:00 +28°C° 0.5 mm 1 m/S 667 mmHg 70%
    13:00 +28°C° 0.5 mm 2 m/S 667 mmHg 71%
    14:00 +27°C° 1.4 mm 1 m/S 666 mmHg 76%
    15:00 +26°C° 1.4 mm 1 m/S 665 mmHg 81%
    16:00 +25°C° 1.4 mm 1 m/S 665 mmHg 87%
    17:00 +24°C° 1.1 mm 1 m/S 665 mmHg 89%
    18:00 +23°C° 1.1 mm 1 m/S 666 mmHg 92%
    19:00 +22°C° 1.1 mm 1 m/S 666 mmHg 94%
    20:00 +22°C° 0.7 mm 1 m/S 666 mmHg 94%
    21:00 +21°C° 0.7 mm 1 m/S 666 mmHg 95%
    22:00 +21°C° 0.7 mm 1 m/S 667 mmHg 95%
    23:00 +21°C° 0.4 mm 1 m/S 667 mmHg 95%

    Morgen, 23 September, Montag

    Zeit Temperatur Niederschläge Wind Luftdruck Luftfeuchtigkeit
    00:00 +21°C° 0.4 mm 1 m/S 666 mmHg 95%
    01:00 +18°C° 0.4 mm 0 m/S 666 mmHg 95%
    02:00 +18°C° 0.2 mm 0 m/S 666 mmHg 95%
    03:00 +18°C° 0.2 mm 0 m/S 666 mmHg 95%
    04:00 +18°C° 0.2 mm 0 m/S 666 mmHg 94%
    05:00 +18°C° 0.1 mm 0 m/S 666 mmHg 93%
    06:00 +19°C° 0.1 mm 0 m/S 667 mmHg 92%
    07:00 +19°C° 0.1 mm 0 m/S 667 mmHg 91%
    08:00 +21°C° 0.1 mm 0 m/S 668 mmHg 82%
    09:00 +24°C° 0.1 mm 0 m/S 668 mmHg 73%
    10:00 +28°C° 0.1 mm 1 m/S 669 mmHg 65%
    11:00 +28°C° 0.6 mm 1 m/S 668 mmHg 66%
    12:00 +28°C° 0.6 mm 1 m/S 668 mmHg 67%
    13:00 +28°C° 0.6 mm 2 m/S 667 mmHg 68%
    14:00 +27°C° 0.6 mm 2 m/S 666 mmHg 73%
    15:00 +26°C° 0.6 mm 1 m/S 665 mmHg 77%
    16:00 +25°C° 0.6 mm 1 m/S 665 mmHg 81%
    17:00 +24°C° 0.7 mm 1 m/S 665 mmHg 86%
    18:00 +23°C° 0.7 mm 1 m/S 665 mmHg 90%
    19:00 +22°C° 0.7 mm 1 m/S 665 mmHg 94%
    20:00 +19°C° 0.3 mm 0 m/S 666 mmHg 93%
    21:00 +19°C° 0.3 mm 0 m/S 666 mmHg 93%
    22:00 +19°C° 0.3 mm 0 m/S 666 mmHg 93%
    23:00 +18°C° 0 mm 0 m/S 666 mmHg 93%

    übermorgen, 24 September, Dienstag

    Zeit Temperatur Niederschläge Wind Luftdruck Luftfeuchtigkeit
    00:00 +18°C° 0 mm 0 m/S 666 mmHg 92%
    01:00 +20°C° 0 mm 1 m/S 666 mmHg 92%
    02:00 +20°C° 0 mm 1 m/S 665 mmHg 92%
    03:00 +19°C° 0 mm 1 m/S 665 mmHg 92%
    04:00 +17°C° 0 mm 0 m/S 665 mmHg 92%
    05:00 +18°C° 0 mm 0 m/S 666 mmHg 90%
    06:00 +18°C° 0 mm 0 m/S 666 mmHg 89%
    07:00 +19°C° 0 mm 0 m/S 667 mmHg 88%
    08:00 +21°C° 0 mm 0 m/S 667 mmHg 80%
    09:00 +23°C° 0 mm 0 m/S 668 mmHg 71%
    10:00 +26°C° 0 mm 0 m/S 669 mmHg 63%
    11:00 +28°C° 0.2 mm 1 m/S 668 mmHg 62%
    12:00 +29°C° 0.2 mm 1 m/S 668 mmHg 61%
    13:00 +29°C° 0.2 mm 1 m/S 667 mmHg 60%
    14:00 +28°C° 1.1 mm 1 m/S 666 mmHg 67%
    15:00 +27°C° 1.1 mm 1 m/S 666 mmHg 75%
    16:00 +25°C° 1.1 mm 1 m/S 665 mmHg 83%
    17:00 +24°C° 1.8 mm 1 m/S 665 mmHg 87%
    18:00 +23°C° 1.8 mm 1 m/S 665 mmHg 91%
    19:00 +22°C° 1.8 mm 1 m/S 666 mmHg 96%
    20:00 +22°C° 2.1 mm 1 m/S 666 mmHg 96%
    21:00 +20°C° 2.1 mm 0 m/S 667 mmHg 96%
    22:00 +20°C° 2.1 mm 0 m/S 667 mmHg 96%
    23:00 +19°C° 2.1 mm 0 m/S 667 mmHg 96%

    25 September, Mittwoch

    Zeit Temperatur Niederschläge Wind Luftdruck Luftfeuchtigkeit
    00:00 +19°C° 2.1 mm 0 m/S 666 mmHg 96%
    01:00 +19°C° 2.1 mm 0 m/S 666 mmHg 96%
    02:00 +19°C° 1.3 mm 0 m/S 666 mmHg 96%
    03:00 +19°C° 1.3 mm 0 m/S 666 mmHg 96%
    04:00 +19°C° 1.3 mm 0 m/S 666 mmHg 96%
    05:00 +19°C° 0.6 mm 0 m/S 666 mmHg 96%
    06:00 +19°C° 0.6 mm 0 m/S 667 mmHg 95%
    07:00 +19°C° 0.6 mm 0 m/S 667 mmHg 94%
    08:00 +21°C° 0.1 mm 0 m/S 668 mmHg 88%
    09:00 +23°C° 0.1 mm 0 m/S 668 mmHg 81%
    10:00 +27°C° 0.1 mm 1 m/S 669 mmHg 75%
    11:00 +26°C° 1.2 mm 1 m/S 668 mmHg 77%
    12:00 +26°C° 1.2 mm 1 m/S 667 mmHg 80%
    13:00 +26°C° 1.2 mm 1 m/S 667 mmHg 82%
    14:00 +25°C° 0.9 mm 1 m/S 666 mmHg 84%
    15:00 +25°C° 0.9 mm 1 m/S 666 mmHg 86%
    16:00 +24°C° 0.9 mm 1 m/S 665 mmHg 87%
    17:00 +21°C° 0.7 mm 0 m/S 665 mmHg 90%
    18:00 +21°C° 0.7 mm 0 m/S 665 mmHg 94%
    19:00 +20°C° 0.7 mm 0 m/S 666 mmHg 97%
    20:00 +19°C° 0.1 mm 0 m/S 666 mmHg 96%
    21:00 +19°C° 0.1 mm 0 m/S 666 mmHg 96%
    22:00 +19°C° 0.1 mm 0 m/S 667 mmHg 96%
    23:00 +19°C° 0 mm 0 m/S 667 mmHg 96%

    26 September, Donnerstag

    Zeit Temperatur Niederschläge Wind Luftdruck Luftfeuchtigkeit
    00:00 +18°C° 0 mm 0 m/S 666 mmHg 96%
    01:00 +18°C° 0 mm 0 m/S 666 mmHg 95%
    02:00 +18°C° 0 mm 0 m/S 666 mmHg 95%
    03:00 +18°C° 0 mm 0 m/S 665 mmHg 95%
    04:00 +18°C° 0 mm 0 m/S 665 mmHg 95%
    05:00 +18°C° 0 mm 0 m/S 666 mmHg 94%
    06:00 +19°C° 0 mm 0 m/S 666 mmHg 93%
    07:00 +19°C° 0 mm 0 m/S 667 mmHg 92%
    08:00 +21°C° 0 mm 0 m/S 667 mmHg 83%
    09:00 +24°C° 0 mm 0 m/S 668 mmHg 74%
    10:00 +28°C° 0 mm 1 m/S 668 mmHg 66%
    11:00 +28°C° 0.5 mm 1 m/S 668 mmHg 66%
    12:00 +28°C° 0.5 mm 1 m/S 667 mmHg 66%
    13:00 +29°C° 0.5 mm 1 m/S 666 mmHg 66%
    14:00 +28°C° 0.8 mm 1 m/S 666 mmHg 71%
    15:00 +27°C° 0.8 mm 1 m/S 665 mmHg 77%
    16:00 +26°C° 0.8 mm 1 m/S 664 mmHg 82%
    17:00 +25°C° 0.7 mm 1 m/S 665 mmHg 86%
    18:00 +23°C° 0.7 mm 1 m/S 665 mmHg 90%
    19:00 +22°C° 0.7 mm 1 m/S 665 mmHg 94%
    20:00 +22°C° 0.2 mm 1 m/S 665 mmHg 94%
    21:00 +21°C° 0.2 mm 1 m/S 666 mmHg 94%
    22:00 +21°C° 0.2 mm 1 m/S 666 mmHg 95%
    23:00 +21°C° 0.1 mm 1 m/S 666 mmHg 95%

    27 September, Freitag

    Zeit Temperatur Niederschläge Wind Luftdruck Luftfeuchtigkeit
    00:00 +21°C° 0.1 mm 1 m/S 666 mmHg 94%
    01:00 +18°C° 0.1 mm 0 m/S 666 mmHg 94%
    02:00 +18°C° 0.1 mm 0 m/S 666 mmHg 94%
    03:00 +18°C° 0.1 mm 0 m/S 665 mmHg 93%
    04:00 +18°C° 0.1 mm 0 m/S 665 mmHg 93%
    05:00 +18°C° 0 mm 0 m/S 666 mmHg 92%
    06:00 +19°C° 0 mm 0 m/S 666 mmHg 91%
    07:00 +19°C° 0 mm 0 m/S 667 mmHg 89%
    08:00 +21°C° 0 mm 0 m/S 667 mmHg 81%
    09:00 +24°C° 0 mm 0 m/S 668 mmHg 72%
    10:00 +28°C° 0 mm 1 m/S 669 mmHg 63%
    11:00 +29°C° 0.2 mm 1 m/S 668 mmHg 61%
    12:00 +29°C° 0.2 mm 1 m/S 667 mmHg 59%
    13:00 +30°C° 0.2 mm 1 m/S 667 mmHg 57%
    14:00 +28°C° 0.8 mm 1 m/S 666 mmHg 65%
    15:00 +27°C° 0.8 mm 1 m/S 665 mmHg 72%
    16:00 +26°C° 0.8 mm 1 m/S 665 mmHg 80%
    17:00 +25°C° 0.9 mm 1 m/S 665 mmHg 85%
    18:00 +23°C° 0.9 mm 1 m/S 665 mmHg 89%
    19:00 +22°C° 0.9 mm 1 m/S 666 mmHg 94%
    20:00 +22°C° 0.9 mm 1 m/S 666 mmHg 94%
    21:00 +22°C° 0.9 mm 1 m/S 666 mmHg 95%
    22:00 +21°C° 0.9 mm 1 m/S 666 mmHg 95%
    23:00 +21°C° 0.3 mm 1 m/S 666 mmHg 95%
    Mehr zeigen